Location: Navajo
(48.7922°N, 105.0603°W)
Time: 11:24:55
(UTC+00:00)

KKS-1 - Pass Details

Date: 05 July 2022
Orbit: 634 x 649 km, 98.2° (Epoch: 18 August)

Event Time Altitude Azimuth Distance (km) Brightness Sun altitude
Rises 07:03:28 0° 356° (N) 2,978 ? -18.4°
Reaches altitude 10° 07:07:42 10° 317° (NW) 2,058 ? -18.4°
Maximum altitude 07:08:30 10° 307° (NW) 2,026 ? -18.4°
Drops below altitude 10° 07:09:19 10° 296° (WNW) 2,054 ? -18.4°
Sets 07:13:31 0° 257° (WSW) 2,954 ? -18.4°
